Regional Weather Roundup
Issued by NWS

Home | Current Version | Previous Version | Text Only | Print | Product List | Glossary On
Versions: 1 2 3 4 5 6 7 8 9 10 11 12 13 14 15 16 17 18 19 20 21 22 23 24 25 26 27 28 29 30 31 32 33 34 35 36 37 38 39 40 41 42 43 44 45 46 47 48 49 50
184
ASUS44 KJAN 270803
RWRMS

MISSISSIPPI HOURLY WEATHER ROUNDUP
NATIONAL WEATHER SERVICE JACKSON MS
200 AM CST THU NOV 27 2014

NOTE: "FAIR: INDICATES FEW OR NO CLOUDS BELOW 12,000 FEET WITH NO
SIGNIFICANT WEATHER AND/OR OBSTRUCTIONS TO VISIBILITY.

MSZ001>002-007>008-010>013-018>021-025>028-034>036-270900-
NORTHWEST MISSISSIPPI

CITY           SKY/WX    TMP DP  RH WIND       PRES   REMARKS
CLARKSDALE     FAIR      39  32  75 NW6       30.30R WCI  35
CLEVELAND      FAIR      40  34  79 NW8       30.29R WCI  35
GREENWOOD      CLEAR     33  31  92 CALM      30.28R
GREENVILLE     CLEAR     44  31  60 NW10      30.29R
GRENADA        FAIR      32  32 100 N7        30.29R WCI  26
OLIVE BRANCH   CLEAR     39  30  70 NW15      30.26R WCI  31
OXFORD         FAIR      36  28  75 NW7       30.27R WCI  30
TUNICA         SUNNY     41  30  65 NW15      30.29R
$$

MSZ003>006-009-014>017-022>024-029>033-037>039-270900-
NORTHEAST MISSISSIPPI

CITY           SKY/WX    TMP DP  RH WIND       PRES   REMARKS
COLUMBUS AFB   CLEAR     33  29  85 W1        30.24R
CORINTH          N/A     32  30  93 W7        30.21R WCI  26
GOLDN TRIANGLE CLEAR     36  30  80 W3        30.23R
STARKVILLE       N/A     32  32 100 CALM      30.25R
TUPELO         CLEAR     40  31  70 VRB3      30.23R
$$

MSZ040-058-270900-
CENTRAL MISSISSIPPI

CITY           SKY/WX    TMP DP  RH WIND       PRES   REMARKS
JACKSON INTL   CLEAR     47  29  49 NW6       30.28R
JACKSON HAWKNS CLEAR     46  29  51 NW6       30.28R
MERIDIAN KEY   CLEAR     35  33  92 S3        30.26R
MERIDIAN NAS   CLEAR     35  31  85 NW3       30.25R
RAYMOND        FAIR      45  39  81 MISG      30.29R
VICKSBURG      CLEAR     35  32  88 NW3       30.31R
$$

MSZ059>079-270900-
SOUTH MISSISSIPPI

CITY           SKY/WX    TMP DP  RH WIND       PRES   REMARKS
BROOKHAVEN     FAIR      46  36  66 CALM      30.30R
HATTIESBURG    CLEAR     41  37  86 CALM      30.28R
MCCOMB         CLEAR     46  36  68 N9        30.29R
NATCHEZ        CLEAR     45  36  70 NW5       30.32R
PINE BELT      CLEAR     48  30  49 NW3       30.27R
$$

MSZ080>082-270900-
COASTAL MISSISSIPPI

CITY           SKY/WX    TMP DP  RH WIND       PRES   REMARKS
BILOXI         CLEAR     52  46  80 VRB2      30.28R
PASCAGOULA     CLEAR     52  45  77 W5        30.28R
GULFPORT       CLEAR     51  45  79 W6        30.28R
$$



USA.gov is the U.S. government's official web portal to all federal, state and local government web resources and services.